Location: Rounton
(54.4000°N, 1.3500°W)
Time: 02:37:18
(UTC+01:00)

FENGYUN 1C DEB - Visible Passes

Search period start: 16 June 2024 00:00
Search period end: 26 June 2024 00:00
Orbit: 732 x 853 km, 99.3° (Epoch: 11 June)

Date Brightness Start Highest point End Pass type
(mag) Time Alt. Az. Time Alt. Az. Time Alt. Az.
16 Jun ? 00:37:52 10° ESE 00:42:28 29° NE 00:46:59 10° N visible
16 Jun ? 02:16:24 11° S 02:21:35 67° WSW 02:26:56 10° NNW visible
17 Jun ? 00:10:16 10° E 00:14:04 20° NE 00:17:48 10° N visible
17 Jun ? 01:47:22 10° SSE 01:52:50 79° ENE 01:58:11 10° NNW visible
17 Jun ? 03:28:43 10° SW 03:32:51 22° W 03:36:57 10° NW visible
17 Jun ? 23:43:11 10° ENE 23:45:46 14° NE 23:48:20 10° NNE visible
18 Jun ? 01:18:56 10° SE 01:24:11 51° ENE 01:29:20 10° N visible
18 Jun ? 02:58:58 10° SSW 03:03:49 34° W 03:08:41 10° NNW visible
19 Jun ? 00:50:49 10° ESE 00:55:38 33° ENE 01:00:20 10° N visible
19 Jun ? 02:29:52 12° S 02:34:54 54° WSW 02:40:09 10° NNW visible
20 Jun ? 00:23:04 10° ESE 00:27:10 23° NE 00:31:13 10° N visible
20 Jun ? 02:00:45 11° SSE 02:06:06 86° WSW 02:11:26 10° NNW visible
20 Jun ? 23:55:44 10° E 23:58:49 16° NE 00:01:53 10° N visible
21 Jun ? 01:32:03 10° SE 01:37:23 61° ENE 01:42:36 10° NNW visible
21 Jun ? 03:12:34 10° SSW 03:17:11 28° W 03:21:44 10° NW visible
21 Jun ? 23:29:16 10° NE 23:30:34 11° NE 23:31:51 10° NNE visible
22 Jun ? 01:03:48 10° SE 01:08:46 39° ENE 01:13:38 10° N visible
22 Jun ? 02:43:18 11° S 02:48:13 44° W 02:53:16 10° NNW visible
23 Jun ? 00:35:53 10° ESE 00:40:16 26° NE 00:44:34 10° N visible
23 Jun ? 02:14:11 11° S 02:19:20 71° WSW 02:24:36 10° NNW visible
24 Jun ? 00:08:20 10° E 00:11:51 18° NE 00:15:18 10° N visible
24 Jun ? 01:45:12 10° SSE 01:50:34 74° ENE 01:55:48 10° NNW visible
24 Jun ? 03:26:21 10° SW 03:30:32 23° W 03:34:39 10° NW visible
24 Jun ? 23:41:24 10° ENE 23:43:31 13° NE 23:45:38 10° NNE visible
25 Jun ? 01:16:48 10° SE 01:21:54 47° ENE 01:26:52 10° N visible
25 Jun ? 02:56:42 11° SSW 03:01:29 36° W 03:06:18 10° NNW visible
